Weather in Molodezhnyy

Russia / Tula Oblast     54°15′07″N   37°41′36″E
temp.,
°C
wind,
m/s
gust,
m/s
humid.,
%
clouds,
%
prec.,
mm/h
press.,
hPa
HPBL,
m
15 april, thu
thu1500:00+12ese2250100 0.0 101615
03:00+12ene335396 0.0 101541
06:00+10e3764100 0.0 1015120
09:00+13ese3556100 0.0 1015227
12:00+17e5743100 0.0 1014813
15:00+18ese4638100 0.0 10141612
18:00+17ese3547100 0.0 1013316
21:00+12ssw2575100 0.3 1015173
16 april, fri
fri1600:00+11e3579100 0.0 1016161
03:00+10e3585100 0.3 1016158
06:00+10e2383100 0.1 101785
09:00+11ene4675100 0.1 1017300
12:00+13ene5669100 0.2 1018551
15:00+16e5756100 0.2 10181331
18:00+15e61161100 1.0 1017871
21:00+12e41079100 4.4 1018293
17 april, sat
sat1700:00+10ene6128899 1.9 1019591
03:00+8ene5109380 1.9 1020372
06:00+8ene599387 0.9 1021356
09:00+9ene798795 1.0 1021491
12:00+14ene7106512 0.0 1021919
15:00+16ene8115682 0.0 10201258
18:00+14ene8126069 0.0 10211153
21:00+11ene6136983 0.0 1022633
18 april, sun
sun1800:00+8ene613735 0.0 1023469
03:00+6ne512665 0.0 1025367
06:00+5ene513703 0.0 1025353
09:00+8ene610550 0.0 1026637
12:00+12ene67420 0.0 10271263
15:00+13ene56374 0.0 10271604
18:00+13ene57425 0.0 10271011
21:00+9ene37584 0.0 1028238
19 april, mon
mon1900:00+7e38650 0.0 1029237
03:00+6e36705 0.0 1030137
06:00+5e497762 0.0 1030225
09:00+8e686677 0.0 1030567
12:00+11ese6854100 0.0 10301524
15:00+11e6857100 0.0 10291409
18:00+10ese5954100 0.0 1029900
21:00+8e71351100 0.0 1028602